GW5713 Weather Reports


time (UTC)temp
F
wind
direction
speed
knots
gust
knots
rain 1hr
in
rain 24hr
in
rain mn
in
humidity
%
barometer
mb
20260502152006 52 233 0.0 0.0 0.00 0.01 0.00 40 1061.9
20260502151508 52 226 0.0 0.0 0.00 0.01 0.00 42 1061.9
20260502151010 52 220 0.0 0.0 0.00 0.01 0.00 41 1061.9
20260502150511 52 218 0.0 0.0 0.00 0.01 0.00 42 1061.9
20260502130515 41 219 0.0 0.0 0.00 0.01 0.00 62 1061.9
20260502123505 37 256 0.0 0.0 0.00 0.01 0.00 71 1061.9
20260502123007 37 254 0.0 0.0 0.00 0.01 0.00 73 1061.9
20260502122509 36 261 0.0 0.0 0.00 0.01 0.00 73 1061.9
20260502122011 36 265 0.0 0.0 0.00 0.01 0.00 73 1061.9
20260502121513 36 266 0.0 0.0 0.00 0.01 0.00 72 1061.9
20260502121015 35 252 0.0 0.0 0.00 0.01 0.00 73 1061.9
20260502120507 35 258 0.0 0.0 0.00 0.01 0.00 73 1061.9
20260502115510 35 230 0.0 0.0 0.00 0.01 0.00 72 1061.9
20260502115012 34 250 0.0 0.0 0.00 0.01 0.00 73 1061.9
20260502114514 34 276 0.0 0.0 0.00 0.01 0.00 74 1061.9
20260502114006 33 290 0.0 0.0 0.00 0.01 0.00 74 1061.9
20260502113507 34 284 0.0 0.0 0.00 0.01 0.00 74 1061.9
20260502113009 34 281 0.0 0.0 0.00 0.01 0.00 71 1061.9
20260502112511 35 281 0.0 0.0 0.00 0.01 0.00 70 1061.9
20260502112012 35 262 0.0 0.0 0.00 0.01 0.00 70 1061.9
20260502111514 35 286 0.0 0.0 0.00 0.01 0.00 70 1061.9
20260502111007 35 281 0.0 0.0 0.00 0.01 0.00 70 1061.9
20260502110509 35 269 0.0 0.0 0.00 0.01 0.00 70 1061.9
20260502110021 35 271 0.0 0.0 0.00 0.01 0.00 70 1061.9
20260502105512 35 281 0.0 0.0 0.00 0.01 0.00 69 1061.9
20260502105014 35 286 0.0 0.0 0.00 0.01 0.00 70 1061.9
20260502104506 35 281 0.0 0.0 0.00 0.01 0.00 70 1061.9
20260502104007 35 274 0.0 0.0 0.00 0.01 0.00 70 1061.9
20260502103510 35 265 0.0 0.0 0.00 0.01 0.00 70 1061.9
20260502103056 35 268 0.0 0.0 0.00 0.01 0.00 70 1061.9
20260502102515 35 276 0.0 0.0 0.00 0.01 0.00 70 1061.9
20260502102007 35 276 0.0 0.0 0.00 0.01 0.00 70 1061.9
20260502101508 35 273 0.0 0.0 0.00 0.01 0.00 70 1061.9
20260502101010 35 272 0.0 0.0 0.00 0.01 0.00 70 1061.9
20260502100512 35 273 0.0 0.0 0.00 0.01 0.00 70 1061.9
20260502091510 36 278 0.0 0.0 0.00 0.01 0.00 67 1061.9
20260502091012 36 282 0.0 0.0 0.00 0.01 0.00 66 1061.9
20260502090515 37 275 0.0 0.0 0.00 0.01 0.00 64 1061.9
20260502071514 40 330 0.0 0.0 0.00 0.01 0.00 58 1061.9
20260502071006 40 329 0.0 0.0 0.00 0.01 0.00 57 1061.9
20260502070508 40 329 0.0 0.0 0.00 0.01 0.00 57 1061.9
20260502070010 40 329 0.0 0.0 0.00 0.01 0.00 57 1061.9
20260502065512 40 330 0.0 0.0 0.00 0.01 0.00 57 1061.9
20260502065014 40 329 0.0 0.0 0.00 0.01 0.00 56 1061.9
20260502064516 41 329 0.0 0.0 0.00 0.01 0.00 56 1061.9
20260502064008 41 329 0.0 0.0 0.00 0.01 0.00 54 1061.9
20260502063509 42 329 0.0 0.0 0.00 0.01 0.00 53 1061.9
20260502063011 42 329 0.0 0.0 0.00 0.01 0.00 51 1061.9
20260502062513 42 329 0.0 0.0 0.00 0.01 0.00 51 1061.9
20260502062014 42 329 0.0 0.0 0.00 0.01 0.00 51 1061.9
20260502061506 42 329 0.0 0.0 0.00 0.01 0.00 51 1061.9
20260502061009 42 329 0.0 0.0 0.00 0.01 0.00 50 1061.9
20260502060511 42 329 0.0 0.0 0.00 0.01 0.00 51 1061.9
20260502060012 42 329 0.0 0.0 0.00 0.01 0.00 52 1061.9
20260502055514 42 327 0.0 0.0 0.00 0.01 0.00 52 1061.9
20260502055006 42 326 0.0 0.0 0.00 0.01 0.00 52 1061.9
20260502054508 43 328 0.0 0.0 0.00 0.01 0.00 51 1061.9
20260502054009 43 328 0.0 0.0 0.00 0.01 0.00 51 1061.9
20260502053511 44 327 0.0 0.0 0.00 0.01 0.00 51 1061.9
20260502053013 44 328 0.0 0.0 0.00 0.01 0.00 49 1061.9
20260502052515 44 328 0.0 0.0 0.00 0.01 0.00 49 1061.9
20260502052006 43 328 0.0 0.0 0.00 0.01 0.00 50 1061.9
20260502051509 43 327 0.0 0.0 0.00 0.01 0.00 51 1061.9
20260502051011 43 328 0.0 0.0 0.00 0.01 0.00 51 1061.9
20260502050513 43 328 0.0 0.0 0.00 0.01 0.00 52 1061.9
20260502050017 43 328 0.0 0.0 0.00 0.01 0.00 52 1061.9
20260502045506 43 328 0.0 0.0 0.00 0.01 0.01 52 1061.9
20260502045008 43 328 0.0 0.0 0.00 0.01 0.01 52 1061.9
20260502044509 43 328 0.0 0.0 0.00 0.01 0.01 53 1061.9
20260502044011 43 327 0.0 0.0 0.00 0.01 0.01 53 1061.9
20260502043513 43 326 0.0 0.0 0.00 0.01 0.01 53 1061.9
20260502043015 43 326 0.0 0.0 0.00 0.01 0.01 53 1061.9
20260502042506 43 326 0.0 0.0 0.00 0.01 0.01 53 1061.9
20260502042009 43 324 0.0 0.0 0.00 0.01 0.01 52 1061.9
20260502041511 43 324 0.0 0.0 0.00 0.01 0.01 52 1061.9
20260502041013 43 325 0.0 0.0 0.00 0.01 0.01 52 1061.9
20260502040515 42 324 0.0 0.0 0.00 0.01 0.01 52 1061.9
20260502040006 42 325 0.0 0.0 0.00 0.01 0.01 53 1061.9
20260502035508 42 324 0.0 0.0 0.00 0.01 0.01 53 1061.9
20260502035011 43 325 0.0 0.0 0.00 0.01 0.01 51 1061.9
20260502034511 43 324 0.0 0.0 0.00 0.01 0.01 52 1061.9
20260502034013 43 324 0.0 0.0 0.00 0.01 0.01 52 1061.9
20260502033515 42 325 0.0 0.0 0.00 0.01 0.01 54 1061.9
20260502033007 41 335 0.0 0.0 0.00 0.01 0.01 56 1061.9
20260502032509 41 334 0.0 0.0 0.00 0.01 0.01 55 1061.9
20260502032011 42 333 0.0 0.0 0.00 0.01 0.01 55 1061.9
20260502031513 42 337 0.0 0.0 0.00 0.01 0.01 54 1061.9
20260502031015 42 340 0.0 0.0 0.00 0.01 0.01 54 1061.9
20260502030506 42 343 0.0 0.0 0.00 0.01 0.01 54 1061.9
20260502030008 43 337 0.0 0.0 0.00 0.01 0.01 53 1061.9
20260502025510 42 335 0.0 0.0 0.00 0.01 0.01 53 1061.9
20260502025011 42 332 0.0 0.0 0.00 0.01 0.01 53 1061.9
20260502024513 42 334 0.0 0.0 0.00 0.01 0.01 53 1061.9
20260502024015 43 340 0.0 0.0 0.00 0.01 0.01 51 1061.9
20260502023506 43 331 0.0 0.0 0.00 0.01 0.01 51 1061.9
20260502023008 43 331 0.0 0.0 0.00 0.01 0.01 52 1061.9
20260502022511 43 333 0.0 0.0 0.00 0.01 0.01 53 1061.9
20260502022013 43 333 0.0 0.0 0.00 0.01 0.01 53 1061.9
20260502021515 42 331 0.0 0.0 0.00 0.01 0.01 54 1061.9
20260502021007 43 334 0.0 0.0 0.00 0.01 0.01 53 1061.9
20260502020509 43 331 0.0 0.0 0.00 0.01 0.01 53 1061.9
20260502020010 43 335 0.0 0.0 0.00 0.01 0.01 53 1061.9
20260502015512 43 340 0.0 0.0 0.00 0.01 0.01 52 1061.9
20260502015013 44 339 0.0 0.0 0.00 0.01 0.01 51 1061.9
20260502014515 44 329 0.0 0.0 0.00 0.01 0.01 50 1061.9
20260502014007 44 328 0.0 0.0 0.00 0.01 0.01 49 1061.9
20260502013508 45 328 0.0 0.0 0.00 0.01 0.01 49 1061.9
20260502013011 45 326 0.0 0.0 0.00 0.01 0.01 48 1061.9
20260502012512 46 314 0.0 0.0 0.00 0.01 0.01 47 1061.9
20260502012015 47 323 0.0 0.0 0.00 0.01 0.01 45 1061.9
20260502011506 47 338 0.0 0.0 0.00 0.01 0.01 44 1061.9
20260502011008 48 342 0.0 0.0 0.00 0.01 0.01 43 1061.9
20260502010510 48 340 0.0 0.0 0.00 0.01 0.01 42 1061.9
20260502010022 48 344 0.0 0.0 0.00 0.01 0.01 41 1061.9
20260502005514 49 332 0.0 0.0 0.00 0.01 0.01 41 1061.9
20260502005015 49 325 0.0 0.0 0.00 0.01 0.01 41 1061.9
20260502004507 49 328 0.0 0.0 0.00 0.01 0.01 41 1061.9
20260502004009 49 341 0.0 0.0 0.00 0.01 0.01 41 1061.9
20260502003510 49 326 0.0 0.0 0.00 0.01 0.01 41 1061.9
20260502003012 49 340 0.0 0.0 0.00 0.01 0.01 42 1061.9
20260502002515 49 350 0.0 0.0 0.00 0.01 0.01 40 1061.9
20260502002007 50 357 0.0 0.0 0.00 0.01 0.01 39 1061.9
20260502001508 50 347 0.0 0.0 0.00 0.01 0.01 40 1061.9
20260502001010 50 352 0.0 0.0 0.00 0.01 0.01 40 1061.9
20260502000512 50 330 0.0 0.0 0.00 0.01 0.01 39 1061.9
20260502000024 50 343 0.0 0.0 0.00 0.01 0.01 40 1061.9
20260501235505 49 339 0.0 0.0 0.00 0.01 0.01 40 1061.9
20260501235007 50 341 0.0 0.0 0.00 0.01 0.01 40 1061.9
20260501234509 50 341 0.0 0.0 0.00 0.01 0.01 39 1061.9
20260501234010 51 347 0.0 0.0 0.00 0.01 0.01 38 1061.9
20260501233512 51 340 0.0 0.0 0.00 0.01 0.01 38 1061.9
20260501233016 52 324 0.0 0.0 0.00 0.01 0.01 38 1061.9
20260501232507 51 310 0.0 0.0 0.00 0.01 0.01 39 1061.9
20260501232008 51 355 0.0 0.0 0.00 0.01 0.01 39 1061.9
20260501231510 51 352 0.0 0.0 0.00 0.01 0.01 39 1061.9
20260501231012 52 7 0.0 0.0 0.00 0.01 0.01 38 1061.9
20260501230514 52 345 0.0 0.0 0.00 0.01 0.01 38 1061.9
20260501230006 53 2 0.0 0.0 0.00 0.01 0.01 38 1061.9
20260501225507 52 353 0.0 0.0 0.00 0.01 0.01 38 1061.9
20260501225009 52 340 0.0 0.0 0.00 0.01 0.01 38 1061.9
20260501224511 52 336 0.0 0.0 0.00 0.01 0.01 38 1061.9
20260501224013 51 357 0.0 0.0 0.00 0.01 0.01 38 1061.9
20260501223514 51 354 0.0 0.0 0.00 0.01 0.01 38 1061.9
20260501223006 52 340 0.0 0.0 0.00 0.01 0.01 37 1061.9
20260501222508 52 356 0.0 0.0 0.00 0.01 0.01 37 1061.9
20260501222009 50 331 0.0 0.0 0.00 0.01 0.01 36 1061.9
20260501221513 51 334 0.0 0.0 0.00 0.01 0.01 38 1061.9
20260501221014 50 353 0.0 0.0 0.00 0.01 0.01 38 1061.9
20260501220516 50 4 0.0 0.0 0.00 0.01 0.01 39 1061.9
20260501220007 52 0 0.0 0.0 0.00 0.01 0.01 39 1061.9
20260501215509 52 354 0.0 0.0 0.00 0.01 0.01 40 1061.9
20260501215011 52 358 0.0 0.0 0.00 0.01 0.01 40 1061.9
20260501214513 51 358 0.0 0.0 0.00 0.01 0.01 40 1061.9
20260501214014 51 358 0.0 0.0 0.00 0.01 0.01 40 1061.9
20260501213506 50 339 0.0 0.0 0.00 0.01 0.01 40 1061.9
20260501213008 51 358 0.0 0.0 0.00 0.01 0.01 41 1061.9
20260501212509 51 329 0.0 0.0 0.00 0.01 0.01 39 1061.9
20260501212011 52 351 0.0 0.0 0.00 0.01 0.01 40 1061.9
20260501211513 52 333 0.0 0.0 0.00 0.01 0.01 39 1061.9
20260501211016 50 356 0.0 0.0 0.00 0.01 0.01 41 1061.9
20260501210506 51 324 0.0 0.0 0.00 0.01 0.01 40 1061.9
20260501210009 51 0 0.0 0.0 0.00 0.01 0.01 41 1061.9
20260501205511 50 350 0.0 0.0 0.00 0.01 0.01 41 1061.9
20260501205013 50 338 0.0 0.0 0.00 0.01 0.01 40 1061.9
20260501204515 50 305 0.0 0.0 0.00 0.01 0.01 40 1061.9
20260501204016 50 317 0.0 0.0 0.00 0.01 0.01 40 1061.9
20260501203508 50 351 0.0 0.0 0.00 0.01 0.01 41 1061.9
20260501203010 49 354 0.0 0.0 0.00 0.01 0.01 41 1061.9
20260501202511 50 340 0.0 0.0 0.00 0.01 0.01 41 1061.9
20260501202013 51 355 0.0 0.0 0.00 0.01 0.01 42 1061.9
20260501201515 50 316 0.0 0.0 0.00 0.01 0.01 40 1061.9
20260501201006 50 346 0.0 0.0 0.00 0.01 0.01 39 1061.9
20260501200508 50 350 0.0 0.0 0.00 0.01 0.01 41 1061.9
20260501200010 50 0 0.0 0.0 0.00 0.01 0.01 42 1061.9
20260501195512 49 345 0.0 0.0 0.00 0.01 0.01 43 1061.9
20260501195013 50 346 0.0 0.0 0.00 0.01 0.01 43 1061.9
20260501194506 49 345 0.0 0.0 0.00 0.01 0.01 43 1061.9
20260501194008 48 349 0.0 0.0 0.00 0.01 0.01 42 1061.9
20260501193510 49 353 0.0 0.0 0.00 0.01 0.01 42 1061.9
20260501193011 49 344 0.0 0.0 0.00 0.01 0.01 43 1061.9
20260501192513 49 333 0.0 0.0 0.00 0.01 0.01 42 1061.9
20260501192015 50 0 0.0 0.0 0.00 0.01 0.01 43 1061.9
20260501191507 49 298 0.0 0.0 0.00 0.01 0.01 42 1061.9
20260501191008 49 290 0.0 0.0 0.00 0.01 0.01 45 1061.9
20260501190510 49 309 0.0 0.0 0.00 0.01 0.01 44 1061.9
20260501190012 49 332 0.0 0.0 0.00 0.01 0.01 46 1061.9
20260501185514 48 312 0.0 0.0 0.00 0.01 0.01 44 1061.9
20260501185005 48 336 0.0 0.0 0.00 0.01 0.01 43 1061.9
20260501184507 48 352 0.0 0.0 0.00 0.01 0.01 46 1061.9
20260501184009 47 305 0.0 0.0 0.00 0.01 0.01 46 1061.9
20260501183511 48 336 0.0 0.0 0.00 0.01 0.01 46 1061.9
20260501183014 48 348 0.0 0.0 0.00 0.01 0.01 46 1061.9
20260501182515 48 328 0.0 0.0 0.00 0.01 0.01 46 1061.9
20260501182007 48 326 0.0 0.0 0.00 0.01 0.01 46 1061.9
20260501181509 49 308 0.0 0.0 0.00 0.01 0.01 46 1061.9
20260501181010 48 314 0.0 0.0 0.00 0.01 0.01 49 1061.9
20260501180512 46 324 0.0 0.0 0.00 0.01 0.01 48 1061.9
20260501180014 46 302 0.0 0.0 0.00 0.01 0.01 48 1061.9
20260501175505 47 314 0.0 0.0 0.00 0.01 0.01 47 1061.9
20260501175008 46 352 0.0 0.0 0.00 0.01 0.01 48 1061.9
20260501174509 47 302 0.0 0.0 0.00 0.01 0.01 47 1061.9
20260501174011 47 300 0.0 0.0 0.00 0.01 0.01 51 1061.9
20260501173512 46 303 0.0 0.0 0.00 0.01 0.01 50 1061.9
20260501173014 45 315 0.0 0.0 0.00 0.01 0.01 52 1061.9
20260501172506 45 305 0.0 0.0 0.00 0.01 0.01 50 1061.9
20260501172009 47 342 0.0 0.0 0.00 0.01 0.01 50 1061.9
20260501171511 46 349 0.0 0.0 0.00 0.01 0.01 50 1061.9
20260501171012 46 336 0.0 0.0 0.00 0.01 0.01 50 1061.9
20260501170514 44 291 0.0 0.0 0.00 0.01 0.01 51 1061.9
20260501165509 46 324 0.0 0.0 0.00 0.01 0.01 50 1061.9
20260501165010 45 296 0.0 0.0 0.00 0.00 0.00 51 1061.9
20260501164512 46 324 0.0 0.0 0.00 0.00 0.00 51 1061.9
20260501164015 45 333 0.0 0.0 0.00 0.00 0.00 50 1061.9
20260501163507 44 336 0.0 0.0 0.00 0.00 0.00 51 1061.9
20260501163008 46 339 0.0 0.0 0.00 0.00 0.00 51 1061.9
20260501162510 45 312 0.0 0.0 0.00 0.00 0.00 54 1061.9
20260501162012 44 313 0.0 0.0 0.00 0.00 0.00 53 1061.9
20260501161514 44 316 0.0 0.0 0.00 0.00 0.00 53 1061.9
20260501161015 44 297 0.0 0.0 0.00 0.00 0.00 54 1061.9
20260501160507 44 284 0.0 0.0 0.00 0.00 0.00 54 1061.9
20260501160009 44 289 0.0 0.0 0.00 0.00 0.00 53 1061.9
20260501155511 44 305 0.0 0.0 0.00 0.00 0.00 55 1061.9
20260501155012 44 324 0.0 0.0 0.00 0.00 0.00 56 1061.9
20260501154514 44 272 0.0 0.0 0.00 0.00 0.00 53 1061.9
20260501154006 44 289 0.0 0.0 0.00 0.00 0.00 57 1061.9
20260501153508 44 299 0.0 0.0 0.00 0.00 0.00 56 1061.9
20260501153010 45 324 0.0 0.0 0.00 0.00 0.00 56 1061.9
20260501152512 45 313 0.0 0.0 0.00 0.00 0.00 57 1061.9